Glasgow, MT

12:51 AM MDT on May 29, 2017 (GMT -0600)
Wokal-Glasgow International

Weather History for KGGW - March, 2013

Change the Weather History Date:

Thursday, March 21, 2013

  Actual Average Record
Temperature  
Mean Temperature 26 °F 34 °F  
Max Temperature 29 °F 45 °F 70 °F (1945)
Min Temperature 23 °F 23 °F -27 °F (1899)
Degree Days  
Heating Degree Days 39 31  
Month to date heating degree days 857 751  
Since 1 July heating degree days 7064 7121  
Cooling Degree Days 0 0  
Month to date cooling degree days 0 0  
Year to date cooling degree days 0 0  
Moisture  
Dew Point 21 °F    
Average Humidity 80    
Maximum Humidity 92    
Minimum Humidity 68    
Precipitation  
Precipitation 0.12 in 0.01 in 0.68 in (1987)
Month to date precipitation 0.92 0.25  
Year to date precipitation 1.58 0.88  
Snow  
Snow 1.40 in 0.10 in 9.00 in (1987)
Month to date snowfall 12.0 3.4  
Since 1 July snowfall 49.3 30.4  
Snow Depth 2.00 in    
Sea Level Pressure  
Sea Level Pressure 29.77 in    
Wind  
Wind Speed 14 mph (ESE)    
Max Wind Speed 28 mph    
Max Gust Speed 35 mph    
Visibility 5 miles    
Events Fog , Snow    
T = Trace of Precipitation, MM = Missing Value Source: NWS Daily Summary

Daily Weather History Graph

Daily Weather History Graph

Search for Another Location

Airport or City:

Trip Planner

Search our weather history database for the weather conditions in past years. The results will help you decide how hot, cold, wet, or windy it might be!

Date:

Astronomy

Mar. 21, 2013 Rise Set
Actual Time 7:06 AM MDT 7:21 PM MDT
Civil Twilight 6:35 AM MDT 7:52 PM MDT
Nautical Twilight 5:58 AM MDT 8:29 PM MDT
Astronomical Twilight 5:21 AM MDT 9:07 PM MDT
Moon 1:31 PM MDT (3/21) 3:53 AM MDT (3/21)
Length of Visible Light 13h 16m
Length of Day
12h 14m
Waxing Gibbous, 69% of the Moon is Illuminated
Mar 21
Waxing Gibbous
Mar 27
Full
Apr 2
Last Quarter
Apr 10
New
Apr 18
First Quarter

Hourly Weather History & Observations

Time (MDT) Temp. Windchill Dew Point Humidity Pressure Visibility Wind Dir Wind Speed Gust Speed Precip Events Conditions
12:53 AM 28.9 °F 14.5 °F 21.0 °F 72% 29.70 in 10.0 mi ESE 25.3 mph - N/A   Mostly Cloudy
1:53 AM 28.0 °F 13.3 °F 21.0 °F 75% 29.70 in 10.0 mi ESE 25.3 mph 32.2 mph N/A   Overcast
2:53 AM 26.1 °F 11.3 °F 19.0 °F 75% 29.69 in 10.0 mi ESE 23.0 mph 32.2 mph N/A   Overcast
3:53 AM 27.0 °F 14.3 °F 19.0 °F 72% 29.73 in 10.0 mi ESE 17.3 mph - 0.01 in   Overcast
4:53 AM 26.1 °F 11.3 °F 18.0 °F 71% 29.69 in 10.0 mi East 23.0 mph 28.8 mph N/A   Overcast
5:53 AM 26.1 °F 12.0 °F 18.0 °F 71% 29.71 in 10.0 mi ESE 20.7 mph - 0.00 in   Overcast
6:53 AM 25.0 °F 12.2 °F 17.1 °F 72% 29.76 in 10.0 mi East 16.1 mph - N/A   Overcast
7:53 AM 25.0 °F 12.6 °F 17.1 °F 72% 29.76 in 10.0 mi East 15.0 mph - N/A   Overcast
8:29 AM 24.8 °F 12.4 °F 17.6 °F 74% 29.68 in 2.5 mi ESE 15.0 mph - 0.00 in Snow Light Snow
8:31 AM 24.8 °F 11.9 °F 17.6 °F 74% 29.68 in 1.2 mi ESE 16.1 mph - 0.00 in Snow Light Snow
8:37 AM 24.8 °F 11.9 °F 19.4 °F 80% 29.69 in 0.2 mi ESE 16.1 mph - 0.00 in Snow Heavy Snow
8:53 AM 24.1 °F 13.1 °F 19.9 °F 84% 29.78 in 0.2 mi East 11.5 mph - 0.03 in Fog , Snow Snow
9:01 AM 24.8 °F 13.4 °F 19.4 °F 80% 29.69 in 0.5 mi ESE 12.7 mph - 0.01 in Fog , Snow Light Snow
9:24 AM 24.8 °F 12.9 °F 19.4 °F 80% 29.69 in 1.0 mi ESE 13.8 mph - 0.03 in Snow Light Snow
9:33 AM 24.8 °F 11.9 °F 19.4 °F 80% 29.69 in 2.0 mi ESE 16.1 mph - 0.03 in Snow Light Snow
9:44 AM 24.8 °F 11.9 °F 17.6 °F 74% 29.69 in 3.0 mi ESE 16.1 mph - 0.03 in Snow Light Snow
9:49 AM 24.8 °F 11.9 °F 19.4 °F 80% 29.69 in 1.8 mi ESE 16.1 mph - 0.03 in Snow Light Snow
9:53 AM 24.1 °F 11.0 °F 19.9 °F 84% 29.78 in 1.0 mi ESE 16.1 mph - 0.03 in Snow Light Snow
10:00 AM 24.8 °F 11.5 °F 21.2 °F 86% 29.69 in 0.5 mi ESE 17.3 mph - 0.00 in Fog , Snow Snow
10:33 AM 24.8 °F 13.4 °F 21.2 °F 86% 29.71 in 1.0 mi East 12.7 mph - 0.02 in Snow Light Snow
10:48 AM 24.8 °F 12.9 °F 21.2 °F 86% 29.72 in 0.5 mi East 13.8 mph - 0.03 in Fog , Snow Snow
10:50 AM 24.8 °F 13.4 °F 21.2 °F 86% 29.72 in 0.2 mi East 12.7 mph - 0.03 in Fog , Snow Heavy Snow
10:53 AM 24.1 °F 13.1 °F 21.0 °F 88% 29.81 in 0.2 mi East 11.5 mph - 0.03 in Fog , Snow Heavy Snow
11:06 AM 24.8 °F 14.0 °F 21.2 °F 86% 29.73 in 0.5 mi East 11.5 mph - 0.01 in Fog , Snow Snow
11:27 AM 24.8 °F 14.0 °F 21.2 °F 86% 29.74 in 0.5 mi East 11.5 mph - 0.03 in Fog , Snow Snow
11:37 AM 24.8 °F 14.0 °F 21.2 °F 86% 29.73 in 0.8 mi East 11.5 mph - 0.03 in Snow Light Snow
11:48 AM 24.8 °F 13.4 °F 21.2 °F 86% 29.73 in 1.0 mi East 12.7 mph - 0.04 in Snow Light Snow
11:53 AM 24.1 °F 13.1 °F 21.0 °F 88% 29.83 in 1.2 mi East 11.5 mph - 0.04 in Snow Light Snow
11:55 AM 24.8 °F 14.0 °F 21.2 °F 86% 29.74 in 1.5 mi ESE 11.5 mph - 0.00 in Snow Light Snow
12:07 PM 24.8 °F 14.0 °F 21.2 °F 86% 29.74 in 2.0 mi ESE 11.5 mph - 0.00 in Snow Light Snow
12:14 PM 24.8 °F 13.4 °F 21.2 °F 86% 29.74 in 1.8 mi East 12.7 mph - 0.00 in Snow Light Snow
12:24 PM 24.8 °F 12.9 °F 21.2 °F 86% 29.74 in 1.0 mi ESE 13.8 mph - 0.00 in Snow Light Snow
12:33 PM 24.8 °F 12.4 °F 21.2 °F 86% 29.74 in 0.5 mi East 15.0 mph - 0.00 in Fog , Snow Snow
12:53 PM 25.0 °F 11.3 °F 21.0 °F 85% 29.83 in 0.5 mi ESE 18.4 mph - 0.01 in Fog , Snow Snow
1:04 PM 24.8 °F 11.9 °F 21.2 °F 86% 29.74 in 1.5 mi East 16.1 mph - 0.01 in Snow Light Snow
1:13 PM 24.8 °F 11.1 °F 21.2 °F 86% 29.73 in 2.5 mi East 18.4 mph - 0.01 in Snow Light Snow
1:22 PM 26.6 °F 13.8 °F 21.2 °F 80% 29.73 in 3.0 mi East 17.3 mph - 0.01 in Snow Light Snow
1:53 PM 26.1 °F 13.1 °F 21.0 °F 81% 29.83 in 10.0 mi East 17.3 mph - 0.01 in   Mostly Cloudy
2:53 PM 27.0 °F 14.3 °F 21.9 °F 81% 29.83 in 10.0 mi ESE 17.3 mph - N/A   Mostly Cloudy
3:53 PM 27.0 °F 16.1 °F 21.9 °F 81% 29.85 in 10.0 mi East 12.7 mph - N/A   Overcast
4:24 PM 26.6 °F 15.2 °F 21.2 °F 80% 29.77 in 10.0 mi ESE 13.8 mph - N/A   Overcast
4:53 PM 27.0 °F 15.2 °F 23.0 °F 85% 29.86 in 10.0 mi ESE 15.0 mph - N/A   Overcast
5:27 PM 26.6 °F 15.2 °F 23.0 °F 86% 29.77 in 10.0 mi ESE 13.8 mph - N/A   Mostly Cloudy
5:53 PM 27.0 °F 16.1 °F 23.0 °F 85% 29.87 in 10.0 mi ESE 12.7 mph - N/A   Overcast
6:53 PM 27.0 °F 16.7 °F 24.1 °F 89% 29.89 in 10.0 mi East 11.5 mph - N/A   Overcast
7:53 PM 27.0 °F 17.3 °F 24.1 °F 89% 29.91 in 10.0 mi East 10.4 mph - N/A   Overcast
8:53 PM 26.1 °F 15.6 °F 24.1 °F 92% 29.93 in 10.0 mi East 11.5 mph - N/A   Overcast
9:13 PM 26.6 °F 16.2 °F 24.8 °F 93% 29.83 in 10.0 mi East 11.5 mph - N/A   Overcast
9:53 PM 26.1 °F 16.8 °F 23.0 °F 88% 29.95 in 10.0 mi East 9.2 mph - N/A   Overcast
10:53 PM 26.1 °F 15.6 °F 23.0 °F 88% 29.95 in 10.0 mi ESE 11.5 mph - N/A   Overcast
11:15 PM 26.6 °F 14.7 °F 23.0 °F 86% 29.84 in 10.0 mi ESE 15.0 mph - N/A   Overcast
11:28 PM 26.6 °F 15.7 °F 23.0 °F 86% 29.84 in 10.0 mi ESE 12.7 mph - N/A   Overcast
11:53 PM 25.0 °F 14.8 °F 23.0 °F 92% 29.94 in 10.0 mi ESE 10.4 mph - N/A   Overcast